| time (UTC) | temp F | wind direction | speed MPH | gust MPH | rain 1hr in | rain 24hr in | rain mn in | humidity % | barometer mb |
| 20260505111549 | 57 | 49 | 1.0 | 6.0 | 0.00 | 0.32 | 0.32 | 88 | 1007.3 |
| 20260505101555 | 61 | 0 | 0.0 | 4.0 | 0.00 | 0.32 | 0.32 | 91 | 1007.3 |
| 20260505100040 | 61 | 20 | 1.0 | 4.0 | 0.00 | 0.32 | 0.32 | 91 | 1007.9 |
| 20260505094558 | 61 | 16 | 2.0 | 7.0 | 0.00 | 0.32 | 0.32 | 91 | 1007.5 |
| 20260505093053 | 61 | 53 | 3.0 | 11.0 | 0.00 | 0.32 | 0.32 | 92 | 1006.3 |
| 20260505091544 | 61 | 21 | 2.0 | 4.0 | 0.00 | 0.32 | 0.32 | 93 | 1007.3 |
| 20260505090044 | 61 | 250 | 1.0 | 7.0 | 0.00 | 0.32 | 0.32 | 92 | 1006.5 |
| 20260505084540 | 61 | 0 | 0.0 | 8.0 | 0.00 | 0.32 | 0.32 | 92 | 1005.9 |
| 20260505083045 | 61 | 149 | 4.0 | 12.0 | 0.00 | 0.32 | 0.32 | 92 | 1005.1 |
| 20260505081547 | 62 | 190 | 7.0 | 17.0 | 0.03 | 0.32 | 0.32 | 93 | 1004.9 |
| 20260505080050 | 61 | 128 | 8.0 | 19.0 | 0.13 | 0.32 | 0.32 | 93 | 1004.5 |
| 20260505074543 | 61 | 210 | 4.0 | 14.0 | 0.19 | 0.32 | 0.32 | 94 | 1005.9 |
| 20260505073054 | 61 | 153 | 3.0 | 7.0 | 0.25 | 0.32 | 0.32 | 93 | 1006.9 |
| 20260505071539 | 62 | 227 | 4.0 | 10.0 | 0.27 | 0.29 | 0.29 | 93 | 1008.3 |
| 20260505070058 | 62 | 229 | 5.0 | 12.0 | 0.19 | 0.19 | 0.19 | 91 | 1008.7 |
| 20260505064553 | 63 | 234 | 4.0 | 16.0 | 0.13 | 0.13 | 0.13 | 88 | 1008.6 |
| 20260505063046 | 64 | 219 | 2.0 | 13.0 | 0.07 | 0.07 | 0.07 | 84 | 1008.2 |
| 20260505061611 | 66 | 233 | 9.0 | 19.0 | 0.02 | 0.02 | 0.02 | 79 | 1007.2 |
| 20260505060053 | 66 | 0 | 2.0 | 5.0 | 0.00 | 0.00 | 0.00 | 76 | 1006.4 |
| 20260505054555 | 66 | 121 | 4.0 | 8.0 | 0.00 | 0.00 | 0.00 | 75 | 1006.4 |
| 20260505053048 | 67 | 93 | 3.0 | 6.0 | 0.00 | 0.00 | 0.00 | 74 | 1006.4 |
| 20260505051544 | 67 | 219 | 2.0 | 7.0 | 0.00 | 0.00 | 0.00 | 73 | 1006.7 |
| 20260505041550 | 67 | 142 | 1.0 | 5.0 | 0.00 | 0.00 | 0.00 | 73 | 1006.8 |
| 20260505040059 | 68 | 157 | 1.0 | 5.0 | 0.00 | 0.00 | 0.00 | 72 | 1007.0 |
| 20260505034544 | 68 | 167 | 2.0 | 8.0 | 0.00 | 0.00 | 0.00 | 71 | 1007.1 |
| 20260505033041 | 69 | 243 | 4.0 | 8.0 | 0.00 | 0.00 | 0.00 | 70 | 1007.0 |
| 20260505031548 | 68 | 199 | 3.0 | 8.0 | 0.00 | 0.00 | 0.00 | 71 | 1007.2 |
| 20260505030048 | 68 | 185 | 3.0 | 6.0 | 0.00 | 0.00 | 0.00 | 71 | 1007.1 |
| 20260505024544 | 69 | 138 | 2.0 | 4.0 | 0.00 | 0.00 | 0.00 | 70 | 1007.2 |
| 20260505023044 | 69 | 112 | 1.0 | 5.0 | 0.00 | 0.00 | 0.00 | 69 | 1007.2 |
| 20260505021540 | 70 | 210 | 2.0 | 8.0 | 0.00 | 0.00 | 0.00 | 68 | 1007.2 |
| 20260505020043 | 70 | 206 | 0.0 | 2.0 | 0.00 | 0.00 | 0.00 | 67 | 1007.0 |
| 20260505014546 | 71 | 139 | 1.0 | 5.0 | 0.00 | 0.00 | 0.00 | 65 | 1006.9 |
| 20260505013045 | 72 | 238 | 3.0 | 12.0 | 0.00 | 0.00 | 0.00 | 64 | 1006.7 |
| 20260505011547 | 72 | 245 | 5.0 | 11.0 | 0.00 | 0.00 | 0.00 | 63 | 1006.7 |
| 20260505004542 | 74 | 258 | 4.0 | 7.0 | 0.00 | 0.00 | 0.00 | 62 | 1006.2 |
| 20260505003044 | 74 | 268 | 4.0 | 11.0 | 0.00 | 0.00 | 0.00 | 61 | 1006.1 |
| 20260505001552 | 75 | 195 | 3.0 | 12.0 | 0.00 | 0.00 | 0.00 | 60 | 1006.0 |
| 20260505000055 | 75 | 264 | 4.0 | 12.0 | 0.00 | 0.00 | 0.00 | 59 | 1006.0 |
| 20260504234543 | 75 | 236 | 3.0 | 9.0 | 0.00 | 0.00 | 0.00 | 59 | 1006.0 |
| 20260504233050 | 76 | 177 | 4.0 | 13.0 | 0.00 | 0.00 | 0.00 | 58 | 1006.0 |
| 20260504231551 | 77 | 224 | 6.0 | 16.0 | 0.00 | 0.00 | 0.00 | 57 | 1006.1 |
| 20260504230052 | 78 | 230 | 4.0 | 16.0 | 0.00 | 0.00 | 0.00 | 56 | 1005.9 |
| 20260504224544 | 78 | 261 | 5.0 | 16.0 | 0.00 | 0.00 | 0.00 | 55 | 1005.8 |
| 20260504223043 | 79 | 237 | 6.0 | 14.0 | 0.00 | 0.00 | 0.00 | 54 | 1005.7 |
| 20260504221542 | 79 | 233 | 5.0 | 14.0 | 0.00 | 0.00 | 0.00 | 54 | 1005.8 |
| 20260504220048 | 79 | 253 | 7.0 | 18.0 | 0.00 | 0.00 | 0.00 | 54 | 1005.7 |
| 20260504214548 | 80 | 247 | 8.0 | 18.0 | 0.00 | 0.00 | 0.00 | 53 | 1005.7 |
| 20260504213104 | 80 | 247 | 9.0 | 19.0 | 0.00 | 0.00 | 0.00 | 54 | 1005.9 |
| 20260504211546 | 80 | 252 | 8.0 | 16.0 | 0.00 | 0.00 | 0.00 | 54 | 1006.0 |
| 20260504210043 | 80 | 213 | 5.0 | 14.0 | 0.00 | 0.00 | 0.00 | 55 | 1006.0 |
| 20260504204550 | 80 | 281 | 7.0 | 16.0 | 0.00 | 0.00 | 0.00 | 54 | 1006.4 |
| 20260504203050 | 80 | 282 | 7.0 | 16.0 | 0.00 | 0.00 | 0.00 | 52 | 1006.6 |
| 20260504201549 | 80 | 245 | 8.0 | 16.0 | 0.00 | 0.00 | 0.00 | 54 | 1006.7 |
| 20260504200046 | 80 | 266 | 8.0 | 16.0 | 0.00 | 0.00 | 0.00 | 53 | 1006.9 |
| 20260504194543 | 79 | 293 | 5.0 | 14.0 | 0.00 | 0.00 | 0.00 | 54 | 1007.1 |
| 20260504193054 | 79 | 238 | 8.0 | 21.0 | 0.00 | 0.00 | 0.00 | 54 | 1007.3 |
| 20260504191538 | 79 | 248 | 8.0 | 15.0 | 0.00 | 0.00 | 0.00 | 54 | 1007.5 |
| 20260504190040 | 78 | 300 | 8.0 | 20.0 | 0.00 | 0.00 | 0.00 | 53 | 1007.5 |
| 20260504184540 | 78 | 238 | 6.0 | 18.0 | 0.00 | 0.00 | 0.00 | 55 | 1007.5 |
| 20260504183055 | 78 | 288 | 6.0 | 17.0 | 0.00 | 0.00 | 0.00 | 53 | 1007.4 |
| 20260504181545 | 78 | 243 | 8.0 | 20.0 | 0.00 | 0.00 | 0.00 | 55 | 1007.5 |
| 20260504180122 | 77 | 214 | 9.0 | 16.0 | 0.00 | 0.00 | 0.00 | 53 | 1007.5 |
| 20260504174549 | 77 | 245 | 8.0 | 17.0 | 0.00 | 0.00 | 0.00 | 54 | 1007.5 |
| 20260504173048 | 77 | 259 | 8.0 | 16.0 | 0.00 | 0.00 | 0.00 | 56 | 1007.5 |
| 20260504171550 | 76 | 257 | 7.0 | 18.0 | 0.00 | 0.00 | 0.00 | 57 | 1007.6 |